DW8545 Weather Reports


time (UTC)temp
C
wind
direction
speed
KPH
gust
KPH
rain 1hr
cm
rain 24hr
cm
rain mn
cm
humidity
%
barometer
mb
20260505064531 6 0 0.0 3.2 0.00 0.00 0.00 48 1014.5
20260505064012 6 0 0.0 3.2 0.00 0.00 0.00 50 1014.4
20260505063512 6 271 0.0 3.2 0.00 0.00 0.00 50 1014.4
20260505063032 6 0 0.0 3.2 0.00 0.00 0.00 49 1014.4
20260505062517 6 0 0.0 0.0 0.00 0.00 0.00 51 1014.4
20260505062013 6 0 0.0 0.0 0.00 0.00 0.00 51 1014.3
20260505061556 6 0 0.0 0.0 0.00 0.00 0.00 51 1014.3
20260505061011 6 0 0.0 0.0 0.00 0.00 0.00 49 1014.2
20260505060513 6 0 0.0 0.0 0.00 0.00 0.00 48 1014.3
20260505060032 6 0 0.0 0.0 0.00 0.00 0.00 47 1014.2
20260505055519 6 0 0.0 3.2 0.00 0.00 0.00 49 1014.3
20260505055014 6 0 0.0 3.2 0.00 0.00 0.00 49 1014.3
20260505054530 6 0 0.0 3.2 0.00 0.00 0.00 49 1014.3
20260505054013 6 271 0.0 3.2 0.00 0.00 0.00 49 1014.3
20260505053512 6 0 0.0 3.2 0.00 0.00 0.00 48 1014.2
20260505053039 6 0 0.0 3.2 0.00 0.00 0.00 49 1014.2
20260505052513 6 0 0.0 0.0 0.00 0.00 0.00 47 1014.3
20260505052012 6 0 0.0 0.0 0.00 0.00 0.00 47 1014.3
20260505051552 6 0 0.0 0.0 0.00 0.00 0.00 48 1014.3
20260505051014 6 0 0.0 0.0 0.00 0.00 0.00 47 1014.2
20260505050516 6 0 0.0 3.2 0.00 0.00 0.00 47 1014.1
20260505041532 7 0 0.0 3.2 0.00 0.00 0.00 43 1013.9
20260505041013 7 0 0.0 3.2 0.00 0.00 0.00 43 1013.8
20260505040513 7 0 0.0 0.0 0.00 0.00 0.00 43 1013.8
20260505040030 7 0 0.0 0.0 0.00 0.00 0.00 42 1013.7
20260505035511 7 0 0.0 0.0 0.00 0.00 0.00 41 1013.7
20260505035012 7 0 0.0 0.0 0.00 0.00 0.00 41 1013.7
20260505034531 7 0 0.0 0.0 0.00 0.00 0.00 39 1013.6
20260505034010 7 0 0.0 0.0 0.00 0.00 0.00 40 1013.5
20260505033513 8 0 0.0 0.0 0.00 0.00 0.00 39 1013.5
20260505033030 8 0 0.0 0.0 0.00 0.00 0.00 39 1013.6
20260505032510 8 0 0.0 0.0 0.00 0.00 0.00 39 1013.6
20260505032011 8 0 0.0 0.0 0.00 0.00 0.00 37 1013.5
20260505031532 8 0 0.0 0.0 0.00 0.00 0.00 38 1013.4
20260505031012 8 0 0.0 3.2 0.00 0.00 0.00 37 1013.3
20260505030512 8 0 0.0 3.2 0.00 0.00 0.00 37 1013.3
20260505030031 9 0 0.0 0.0 0.00 0.00 0.00 36 1013.4
20260505025515 9 0 0.0 0.0 0.00 0.00 0.00 35 1013.4
20260505025011 10 0 0.0 0.0 0.00 0.00 0.00 35 1013.3
20260505024532 10 0 0.0 0.0 0.00 0.00 0.00 34 1013.3
20260505024011 10 0 0.0 0.0 0.00 0.00 0.00 34 1013.2
20260505023512 10 0 0.0 0.0 0.00 0.00 0.00 35 1013.2
20260505023030 10 0 0.0 0.0 0.00 0.00 0.00 33 1013.2
20260505022513 10 0 0.0 3.2 0.00 0.00 0.00 34 1013.2
20260505022010 11 0 0.0 3.2 0.00 0.00 0.00 33 1013.3
20260505021530 11 0 0.0 3.2 0.00 0.00 0.00 32 1013.4
20260505021010 11 0 0.0 3.2 0.00 0.00 0.00 32 1013.4
20260505020512 11 0 0.0 1.6 0.00 0.00 0.00 31 1013.3
20260505020032 12 271 0.0 3.2 0.00 0.00 0.00 31 1013.3
20260505015513 12 271 0.0 3.2 0.00 0.00 0.00 31 1013.3
20260505015014 12 0 0.0 0.0 0.00 0.00 0.00 30 1013.3
20260505014532 12 0 0.0 3.2 0.00 0.00 0.00 29 1013.1
20260505014017 13 0 0.0 3.2 0.00 0.00 0.00 28 1013.1
20260505013510 13 0 0.0 0.0 0.00 0.00 0.00 28 1013.1
20260505013031 13 0 0.0 0.0 0.00 0.00 0.00 27 1013.2
20260505012514 13 0 0.0 3.2 0.00 0.00 0.00 26 1013.2
20260505012014 13 0 0.0 3.2 0.00 0.00 0.00 26 1013.2
20260505011532 13 271 0.0 3.2 0.00 0.00 0.00 26 1013.4
20260505011010 14 271 0.0 3.2 0.00 0.00 0.00 26 1013.3
20260505010512 14 0 0.0 3.2 0.00 0.00 0.00 25 1013.4
20260505010030 14 0 0.0 3.2 0.00 0.00 0.00 26 1013.4
20260505005513 14 271 0.0 4.8 0.00 0.00 0.00 25 1013.5
20260505005012 14 271 0.0 6.4 0.00 0.00 0.00 26 1013.5
20260505004530 14 271 1.6 6.4 0.00 0.00 0.00 25 1013.5
20260505004012 15 281 0.0 3.2 0.00 0.00 0.00 26 1013.5
20260505003511 15 281 0.0 3.2 0.00 0.00 0.00 24 1013.5
20260505003031 15 281 0.0 4.8 0.00 0.00 0.00 24 1013.6
20260505002512 15 281 0.0 4.8 0.00 0.00 0.00 25 1013.7
20260505002014 15 281 1.6 4.8 0.00 0.00 0.00 24 1013.5
20260505001532 15 281 1.6 4.8 0.00 0.00 0.00 24 1013.8
20260505001013 15 268 0.0 3.2 0.00 0.00 0.00 23 1013.9
20260505000513 15 268 0.0 3.2 0.00 0.00 0.00 24 1013.8
20260505000030 15 268 1.6 4.8 0.00 0.00 0.00 24 1013.8
20260504235513 15 268 1.6 4.8 0.00 0.00 0.00 23 1013.9
20260504235012 15 265 1.6 4.8 0.00 0.00 0.00 23 1014.0
20260504234534 15 268 1.6 4.8 0.00 0.00 0.00 23 1013.9
20260504234010 15 232 1.6 9.7 0.00 0.00 0.00 26 1014.0
20260504233510 15 229 3.2 9.7 0.00 0.00 0.00 23 1014.1
20260504233033 15 275 3.2 8.0 0.00 0.00 0.00 23 1014.2
20260504232512 15 267 0.0 11.3 0.00 0.00 0.00 24 1014.1
20260504232012 15 266 3.2 12.9 0.00 0.00 0.00 22 1014.3
20260504231530 15 282 4.8 12.9 0.00 0.00 0.00 21 1014.1
20260504231012 15 281 1.6 11.3 0.00 0.00 0.00 23 1014.3
20260504230511 15 277 3.2 17.7 0.00 0.00 0.00 22 1014.2
20260504230034 15 281 3.2 17.7 0.00 0.00 0.00 24 1014.3
20260504225516 15 276 4.8 17.7 0.00 0.00 0.00 23 1014.3
20260504225012 16 269 3.2 14.5 0.00 0.00 0.00 24 1014.3
20260504224529 16 269 4.8 14.5 0.00 0.00 0.00 25 1014.3
20260504224013 16 283 3.2 9.7 0.00 0.00 0.00 27 1014.3
20260504223511 16 263 1.6 8.0 0.00 0.00 0.00 27 1014.3
20260504223029 16 250 3.2 11.3 0.00 0.00 0.00 29 1014.3
20260504222511 16 275 3.2 11.3 0.00 0.00 0.00 28 1014.4
20260504222011 16 269 3.2 11.3 0.00 0.00 0.00 27 1014.3
20260504221531 15 270 4.8 11.3 0.00 0.00 0.00 27 1014.3
20260504221012 15 270 3.2 14.5 0.00 0.00 0.00 29 1014.3
20260504220515 15 300 3.2 14.5 0.00 0.00 0.00 29 1014.4
20260504220034 15 273 4.8 14.5 0.00 0.00 0.00 31 1014.6
20260504215513 15 265 3.2 16.1 0.00 0.00 0.00 31 1014.5
20260504215012 15 281 6.4 16.1 0.00 0.00 0.00 31 1014.6
20260504214530 15 273 3.2 29.0 0.00 0.00 0.00 30 1014.5
20260504214012 15 283 6.4 29.0 0.00 0.00 0.00 30 1014.6
20260504213512 15 268 1.6 11.3 0.00 0.00 0.00 28 1014.5
20260504213032 15 279 3.2 11.3 0.00 0.00 0.00 29 1014.8
20260504212513 15 0 3.2 16.1 0.00 0.00 0.00 30 1015.0
20260504212013 15 266 4.8 16.1 0.00 0.00 0.00 28 1015.0
20260504211533 15 256 3.2 14.5 0.00 0.00 0.00 30 1015.2
20260504211013 15 279 4.8 14.5 0.00 0.00 0.00 30 1015.2
20260504210510 15 275 4.8 19.3 0.00 0.00 0.00 30 1015.2
20260504210040 15 281 4.8 19.3 0.00 0.00 0.00 31 1015.2
20260504205512 15 265 1.6 11.3 0.00 0.00 0.00 30 1015.1
20260504205013 15 320 1.6 12.9 0.00 0.00 0.00 33 1015.2
20260504204533 15 281 3.2 16.1 0.00 0.00 0.00 34 1015.4
20260504204016 15 280 4.8 16.1 0.00 0.00 0.00 31 1015.4
20260504203513 15 302 6.4 16.1 0.00 0.00 0.00 33 1015.4
20260504203049 15 284 3.2 12.9 0.00 0.00 0.00 35 1015.5
20260504202511 15 324 6.4 12.9 0.00 0.00 0.00 35 1015.5
20260504202010 15 283 4.8 11.3 0.00 0.00 0.00 36 1015.7
20260504201532 15 292 4.8 9.7 0.00 0.00 0.00 36 1015.7
20260504201018 15 289 3.2 9.7 0.00 0.00 0.00 35 1015.6
20260504200513 15 281 4.8 9.7 0.00 0.00 0.00 37 1015.8
20260504200032 15 248 3.2 9.7 0.00 0.00 0.00 36 1015.8
20260504195513 15 265 1.6 9.7 0.00 0.00 0.00 36 1015.7
20260504195013 15 276 3.2 9.7 0.00 0.00 0.00 37 1015.8
20260504194533 15 273 1.6 12.9 0.00 0.00 0.00 37 1016.0
20260504194013 15 248 3.2 12.9 0.00 0.00 0.00 38 1016.3
20260504193516 15 304 3.2 11.3 0.00 0.00 0.00 41 1016.2
20260504193030 15 273 4.8 14.5 0.00 0.00 0.00 39 1016.3
20260504192513 15 279 3.2 14.5 0.00 0.00 0.00 40 1016.2
20260504192010 15 290 3.2 14.5 0.00 0.00 0.00 40 1016.0
20260504191532 15 244 3.2 14.5 0.00 0.00 0.00 40 1016.2
20260504191014 15 290 4.8 14.5 0.00 0.00 0.00 40 1016.4
20260504190514 14 284 4.8 14.5 0.00 0.00 0.00 41 1016.5
20260504190030 14 265 4.8 14.5 0.00 0.00 0.00 40 1016.4
20260504185512 14 279 1.6 12.9 0.00 0.00 0.00 43 1016.3
20260504185010 14 268 1.6 17.7 0.00 0.00 0.00 46 1016.5
20260504184534 13 269 1.6 17.7 0.00 0.00 0.00 42 1016.5
20260504184013 14 316 3.2 12.9 0.00 0.00 0.00 44 1016.5
20260504183514 14 50 1.6 8.0 0.00 0.00 0.00 42 1016.6
20260504183033 13 280 3.2 6.4 0.00 0.00 0.00 44 1016.5
20260504182523 13 271 1.6 4.8 0.00 0.00 0.00 43 1016.6
20260504182018 13 271 1.6 11.3 0.00 0.00 0.00 42 1016.6
20260504181529 13 288 3.2 11.3 0.00 0.00 0.00 45 1016.6
20260504181010 13 270 1.6 11.3 0.00 0.00 0.00 44 1016.6
20260504180509 13 268 1.6 11.3 0.00 0.00 0.00 45 1016.8
20260504180032 13 282 3.2 11.3 0.00 0.00 0.00 48 1017.0
20260504175558 13 309 1.6 17.7 0.00 0.00 0.00 46 1017.0
20260504175013 13 0 3.2 17.7 0.00 0.00 0.00 49 1017.0
20260504174528 13 278 3.2 14.5 0.00 0.00 0.00 47 1017.1
20260504174013 13 281 1.6 11.3 0.00 0.00 0.00 47 1017.0
20260504173512 13 295 3.2 11.3 0.00 0.00 0.00 46 1016.9
20260504173030 13 242 1.6 6.4 0.00 0.00 0.00 48 1017.1
20260504172512 13 280 1.6 6.4 0.00 0.00 0.00 47 1017.1
20260504172011 12 282 1.6 9.7 0.00 0.00 0.00 48 1017.1
20260504171532 12 246 3.2 14.5 0.00 0.00 0.00 47 1017.0
20260504171018 12 276 3.2 14.5 0.00 0.00 0.00 47 1017.0
20260504170516 12 281 1.6 9.7 0.00 0.00 0.00 51 1017.0
20260504151017 10 53 0.0 3.2 0.00 0.00 0.00 60 1017.1
20260504150511 10 53 1.6 3.2 0.00 0.00 0.00 58 1017.0
20260504141013 8 53 0.0 3.2 0.00 0.00 0.00 70 1017.1
20260504140516 8 0 0.0 3.2 0.00 0.00 0.00 71 1017.2
20260504130513 6 0 0.0 0.0 0.00 0.00 0.00 74 1016.3
20260504110511 6 0 0.0 0.0 0.00 0.00 0.00 73 1016.0
20260504100514 7 53 0.0 3.2 0.00 0.00 0.00 72 1016.5
20260504081534 8 53 0.0 3.2 0.00 0.00 0.00 68 1017.5
20260504081010 8 53 0.0 3.2 0.00 0.00 0.00 67 1017.4
20260504080512 8 53 0.0 3.2 0.00 0.00 0.00 68 1017.4